WXM80 ListenWXM80 Stop

You find our weather info also at:

UK Metoffice

WeatherCloud

Weather Underground

Northeastern Weather Network

AWEKAS

Citizen Weather Observer Program (CWOP)

HAMweather, WeatherForYou, PWS Weather


Weather Underground History page Text

Daily Summary for December 14, 2016 Units:  English    Metric   Both
« Previous Day
Next Day »
Daily Weekly Monthly Yearly Custom
  High: Low: Average:
Temperature: 42.6 °F 30.6 °F 37.7 °F
Dew Point: 33.6 °F 16.5 °F 26.9 °F
Humidity: 86 % 50 % 66 %
Wind Speed: 9.7 mph 0.0 mph 2.7 mph
Wind Gust: 16.1 mph - -
Wind:- - West
Pressure: 29.99 in 29.84 in -
Precipitation: 0.00 in    
Historical Graphs
 
 
Tabular Data for December 14, 2016
Time Temperature Dew Point Pressure Wind Wind Speed Wind Gust Humidity Rainfall Rate (Hourly)
00:00 38.2 °F 32.9 °F 29.98 in Calm     81 % 0.00 in
00:06 38.2 °F 32.6 °F 29.99 in SSE 0.6 mph 2.3 mph 80 % 0.00 in
00:11 38.3 °F 32.7 °F 29.99 in SSE 0.2 mph 1.2 mph 80 % 0.00 in
00:16 38.3 °F 32.7 °F 29.99 in WSW 1.6 mph 3.5 mph 80 % 0.00 in
00:21 38.4 °F 32.8 °F 29.99 in WSW 1.0 mph 3.0 mph 80 % 0.00 in
00:26 38.4 °F 32.8 °F 29.98 in WSW 1.0 mph 2.0 mph 80 % 0.00 in
00:31 38.5 °F 32.9 °F 29.98 in WSW 0.7 mph 2.3 mph 80 % 0.00 in
00:36 38.6 °F 33.0 °F 29.98 in WSW 0.6 mph 2.0 mph 80 % 0.00 in
00:41 38.7 °F 32.7 °F 29.97 in WSW 0.6 mph 2.3 mph 79 % 0.00 in
00:46 38.7 °F 32.7 °F 29.97 in WSW 0.1 mph   79 % 0.00 in
00:51 38.8 °F 32.8 °F 29.97 in Calm     79 % 0.00 in
00:59 38.8 °F 32.8 °F 29.97 in WSW 1.6 mph 3.5 mph 79 % 0.00 in
01:04 38.9 °F 32.9 °F 29.97 in West 0.4 mph 2.3 mph 79 % 0.00 in
01:09 38.9 °F 32.9 °F 29.97 in Calm     79 % 0.00 in
01:14 39.0 °F 33.0 °F 29.96 in West 0.9 mph 3.5 mph 79 % 0.00 in
01:19 39.0 °F 33.0 °F 29.97 in SSW 2.0 mph 3.5 mph 79 % 0.00 in
01:24 39.1 °F 33.5 °F 29.97 in WSW 0.9 mph 3.5 mph 80 % 0.00 in
01:29 39.1 °F 33.5 °F 29.97 in Calm   2.0 mph 80 % 0.00 in
01:34 39.2 °F 33.5 °F 29.97 in Calm   1.2 mph 80 % 0.00 in
01:39 39.2 °F 33.5 °F 29.97 in Calm   1.0 mph 80 % 0.00 in
01:44 39.3 °F 33.6 °F 29.97 in Calm   1.0 mph 80 % 0.00 in
01:49 39.3 °F 33.6 °F 29.96 in Calm     80 % 0.00 in
01:54 39.3 °F 33.6 °F 29.96 in Calm   1.0 mph 80 % 0.00 in
01:59 39.3 °F 33.6 °F 29.96 in Calm     80 % 0.00 in
02:05 39.3 °F 33.6 °F 29.96 in Calm     80 % 0.00 in
02:10 39.3 °F 33.3 °F 29.96 in WSW 0.1 mph   79 % 0.00 in
02:15 39.2 °F 33.5 °F 29.96 in WSW 0.1 mph 1.2 mph 80 % 0.00 in
02:20 39.2 °F 33.5 °F 29.96 in WSW 0.1 mph 2.0 mph 80 % 0.00 in
02:25 39.2 °F 33.2 °F 29.95 in Calm     79 % 0.00 in
02:30 39.2 °F 33.2 °F 29.95 in Calm     79 % 0.00 in
02:35 39.1 °F 33.1 °F 29.95 in Calm     79 % 0.00 in
02:40 39.1 °F 33.1 °F 29.95 in Calm     79 % 0.00 in
02:45 39.1 °F 33.1 °F 29.94 in Calm   1.2 mph 79 % 0.00 in
02:50 39.0 °F 33.0 °F 29.94 in Calm   1.2 mph 79 % 0.00 in
02:56 38.9 °F 32.9 °F 29.94 in WSW 0.1 mph 1.2 mph 79 % 0.00 in
03:01 38.8 °F 33.2 °F 29.94 in Calm   1.2 mph 80 % 0.00 in
03:06 38.7 °F 33.1 °F 29.94 in WSW 0.2 mph 1.2 mph 80 % 0.00 in
03:11 38.5 °F 32.9 °F 29.93 in Calm     80 % 0.00 in
03:16 38.3 °F 32.7 °F 29.94 in WSW 0.1 mph 1.2 mph 80 % 0.00 in
03:21 38.2 °F 32.6 °F 29.94 in Calm   1.2 mph 80 % 0.00 in
03:26 38.0 °F 32.4 °F 29.93 in Calm     80 % 0.00 in
03:31 37.9 °F 32.6 °F 29.92 in Calm     81 % 0.00 in
03:36 37.8 °F 32.5 °F 29.93 in Calm     81 % 0.00 in
03:41 37.7 °F 32.4 °F 29.92 in Calm   1.2 mph 81 % 0.00 in
03:47 37.7 °F 32.4 °F 29.92 in Calm     81 % 0.00 in
03:52 37.5 °F 32.5 °F 29.92 in Calm     82 % 0.00 in
03:57 37.4 °F 32.7 °F 29.92 in WSW 0.9 mph 3.0 mph 83 % 0.00 in
04:02 37.2 °F 32.5 °F 29.91 in Calm   1.2 mph 83 % 0.00 in
04:07 37.0 °F 32.3 °F 29.92 in WSW 0.2 mph 1.2 mph 83 % 0.00 in
04:12 36.9 °F 32.2 °F 29.92 in WSW 0.7 mph 1.2 mph 83 % 0.00 in
04:17 36.7 °F 32.0 °F 29.91 in WSW 0.3 mph 2.3 mph 83 % 0.00 in
04:22 36.6 °F 31.9 °F 29.91 in WSW 0.4 mph 2.3 mph 83 % 0.00 in
04:27 36.4 °F 32.0 °F 29.90 in Calm   1.2 mph 84 % 0.00 in
04:32 36.3 °F 31.9 °F 29.91 in WSW 0.4 mph 1.2 mph 84 % 0.00 in
04:38 36.1 °F 31.7 °F 29.91 in Calm     84 % 0.00 in
04:44 36.0 °F 31.6 °F 29.91 in Calm   1.2 mph 84 % 0.00 in
04:49 35.9 °F 31.8 °F 29.91 in WSW 0.8 mph 2.3 mph 85 % 0.00 in
04:54 35.7 °F 31.6 °F 29.91 in WSW 0.2 mph 1.2 mph 85 % 0.00 in
04:59 35.6 °F 31.5 °F 29.91 in WSW 0.6 mph 3.0 mph 85 % 0.00 in
05:04 35.5 °F 31.4 °F 29.92 in WSW 0.6 mph 2.3 mph 85 % 0.00 in
05:09 35.4 °F 31.3 °F 29.91 in WSW 1.6 mph 2.3 mph 85 % 0.00 in
05:14 35.3 °F 31.2 °F 29.92 in WSW 0.5 mph 2.3 mph 85 % 0.00 in
05:19 35.3 °F 31.5 °F 29.92 in West 0.9 mph 3.5 mph 86 % 0.00 in
05:24 35.2 °F 31.4 °F 29.92 in WNW 1.1 mph 2.3 mph 86 % 0.00 in
05:29 35.2 °F 31.4 °F 29.92 in West 1.0 mph 5.0 mph 86 % 0.00 in
05:39 35.3 °F 31.2 °F 29.92 in Calm   3.0 mph 85 % 0.00 in
05:44 35.3 °F 31.2 °F 29.92 in West 2.0 mph 5.0 mph 85 % 0.00 in
05:49 35.4 °F 31.3 °F 29.92 in WNW 2.0 mph 8.0 mph 85 % 0.00 in
05:54 35.6 °F 31.3 °F 29.93 in WNW 3.0 mph 8.0 mph 84 % 0.00 in
05:59 36.0 °F 31.3 °F 29.93 in NW 3.4 mph 8.1 mph 83 % 0.00 in
06:05 36.3 °F 31.3 °F 29.93 in West 5.7 mph 9.2 mph 82 % 0.00 in
06:10 36.7 °F 31.7 °F 29.93 in WNW 3.3 mph 9.2 mph 82 % 0.00 in
06:15 36.9 °F 31.9 °F 29.93 in NW 1.8 mph 4.6 mph 82 % 0.00 in
06:20 37.1 °F 31.8 °F 29.93 in NW 4.9 mph 10.4 mph 81 % 0.00 in
06:30 37.5 °F 31.9 °F 29.93 in WNW 5.3 mph 8.1 mph 80 % 0.00 in
06:35 37.6 °F 32.0 °F 29.94 in WNW 3.9 mph 7.0 mph 80 % 0.00 in
06:40 37.6 °F 32.0 °F 29.94 in WNW 3.3 mph 7.0 mph 80 % 0.00 in
06:45 37.7 °F 32.1 °F 29.94 in NW 4.2 mph 5.0 mph 80 % 0.00 in
06:50 37.6 °F 31.7 °F 29.95 in WNW 4.9 mph 9.0 mph 79 % 0.00 in
06:56 37.5 °F 31.6 °F 29.95 in NW 8.4 mph 12.7 mph 79 % 0.00 in
07:01 37.4 °F 31.5 °F 29.95 in WNW 3.4 mph 5.8 mph 79 % 0.00 in
07:06 37.4 °F 31.8 °F 29.95 in NNW 4.5 mph 10.4 mph 80 % 0.00 in
07:11 37.3 °F 31.4 °F 29.95 in West 6.2 mph 10.4 mph 79 % 0.00 in
07:16 37.3 °F 31.7 °F 29.95 in WSW 6.0 mph 9.0 mph 80 % 0.00 in
07:21 37.3 °F 31.4 °F 29.95 in WNW 5.0 mph 7.0 mph 79 % 0.00 in
07:26 37.3 °F 31.7 °F 29.96 in NW 7.4 mph 9.2 mph 80 % 0.00 in
07:31 37.3 °F 31.7 °F 29.96 in West 2.7 mph 6.9 mph 80 % 0.00 in
07:41 37.4 °F 31.5 °F 29.96 in NW 2.9 mph 8.1 mph 79 % 0.00 in
07:47 37.4 °F 31.5 °F 29.96 in WNW 4.2 mph 11.5 mph 79 % 0.00 in
07:52 37.4 °F 31.5 °F 29.97 in West 3.4 mph 6.0 mph 79 % 0.00 in
07:57 37.5 °F 31.6 °F 29.96 in WNW 4.3 mph 8.1 mph 79 % 0.00 in
08:02 37.6 °F 31.4 °F 29.97 in WNW 2.7 mph 8.0 mph 78 % 0.00 in
08:07 37.6 °F 31.4 °F 29.97 in WSW 8.5 mph 11.5 mph 78 % 0.00 in
08:12 37.7 °F 31.1 °F 29.97 in WNW 2.5 mph 8.1 mph 77 % 0.00 in
08:17 37.9 °F 31.3 °F 29.97 in WNW 3.5 mph 5.8 mph 77 % 0.00 in
08:22 37.9 °F 31.3 °F 29.98 in WNW 5.0 mph 9.2 mph 77 % 0.00 in
08:27 38.0 °F 31.4 °F 29.98 in NW 4.4 mph 9.0 mph 77 % 0.00 in
08:33 38.1 °F 31.2 °F 29.98 in WNW 5.7 mph 11.5 mph 76 % 0.00 in
08:38 38.2 °F 31.3 °F 29.98 in West 9.7 mph 15.0 mph 76 % 0.00 in
08:43 38.2 °F 31.3 °F 29.98 in West 4.9 mph 11.5 mph 76 % 0.00 in
08:48 38.3 °F 31.1 °F 29.99 in WNW 1.9 mph 4.0 mph 75 % 0.00 in
08:53 38.4 °F 31.2 °F 29.98 in WNW 5.7 mph 12.7 mph 75 % 0.00 in
08:58 38.5 °F 30.9 °F 29.99 in NW 5.8 mph 8.1 mph 74 % 0.00 in
09:03 38.6 °F 30.7 °F 29.99 in WNW 5.7 mph 9.2 mph 73 % 0.00 in
09:08 38.7 °F 30.8 °F 29.99 in West 7.6 mph 11.5 mph 73 % 0.00 in
09:13 38.7 °F 30.8 °F 29.98 in NW 5.5 mph 9.0 mph 73 % 0.00 in
09:18 38.8 °F 30.5 °F 29.99 in WNW 5.7 mph 11.5 mph 72 % 0.00 in
09:23 38.9 °F 30.3 °F 29.99 in WNW 2.5 mph 9.2 mph 71 % 0.00 in
09:28 39.1 °F 30.1 °F 29.99 in NW 5.5 mph 10.4 mph 70 % 0.00 in
09:34 39.1 °F 29.8 °F 29.99 in WNW 6.0 mph 8.1 mph 69 % 0.00 in
09:39 39.3 °F 29.6 °F 29.99 in West 3.3 mph 11.5 mph 68 % 0.00 in
09:44 39.5 °F 29.1 °F 29.99 in WNW 6.4 mph 11.5 mph 66 % 0.00 in
09:49 39.6 °F 28.8 °F 29.99 in WNW 3.2 mph 6.9 mph 65 % 0.00 in
09:54 39.8 °F 29.0 °F 29.99 in NW 6.0 mph 10.0 mph 65 % 0.00 in
09:59 40.0 °F 28.8 °F 29.99 in WSW 3.5 mph 8.1 mph 64 % 0.00 in
10:04 40.1 °F 28.5 °F 29.99 in WNW 7.3 mph 11.5 mph 63 % 0.00 in
10:09 40.3 °F 28.7 °F 29.98 in WNW 2.4 mph 3.5 mph 63 % 0.00 in
10:14 40.5 °F 28.5 °F 29.98 in NW 4.4 mph 10.4 mph 62 % 0.00 in
10:19 40.6 °F 28.6 °F 29.98 in NW 2.8 mph 9.2 mph 62 % 0.00 in
10:24 40.7 °F 28.7 °F 29.97 in West 3.0 mph 4.6 mph 62 % 0.00 in
10:29 40.8 °F 28.4 °F 29.97 in NW 3.0 mph 9.0 mph 61 % 0.00 in
10:34 40.9 °F 28.5 °F 29.96 in WNW 3.0 mph 10.0 mph 61 % 0.00 in
10:39 41.0 °F 27.8 °F 29.96 in West 5.6 mph 9.2 mph 59 % 0.00 in
10:44 41.1 °F 27.4 °F 29.96 in WNW 5.0 mph 10.0 mph 58 % 0.00 in
10:49 41.2 °F 27.9 °F 29.96 in WNW 3.0 mph 8.0 mph 59 % 0.00 in
10:54 41.3 °F 27.6 °F 29.95 in WNW 4.6 mph 11.0 mph 58 % 0.00 in
11:00 41.3 °F 27.6 °F 29.95 in WSW 5.1 mph 8.0 mph 58 % 0.00 in
11:05 41.2 °F 27.1 °F 29.95 in West 3.1 mph 11.5 mph 57 % 0.00 in
11:10 41.2 °F 27.5 °F 29.95 in West 7.3 mph 11.5 mph 58 % 0.00 in
11:15 41.1 °F 27.4 °F 29.95 in SW 5.6 mph 10.4 mph 58 % 0.00 in
11:20 41.2 °F 27.1 °F 29.94 in WSW 4.9 mph 6.9 mph 57 % 0.00 in
11:25 41.2 °F 26.7 °F 29.94 in WSW 2.8 mph 11.5 mph 56 % 0.00 in
11:30 41.2 °F 26.7 °F 29.94 in WSW 6.2 mph 10.4 mph 56 % 0.00 in
11:35 41.2 °F 27.1 °F 29.94 in WNW 6.7 mph 11.0 mph 57 % 0.00 in
11:40 41.2 °F 27.1 °F 29.95 in WNW 5.0 mph 8.1 mph 57 % 0.00 in
11:45 41.2 °F 27.1 °F 29.94 in West 5.5 mph 10.4 mph 57 % 0.00 in
11:51 41.3 °F 27.2 °F 29.94 in NW 3.6 mph 15.0 mph 57 % 0.00 in
11:56 41.3 °F 27.2 °F 29.94 in NW 5.0 mph 10.4 mph 57 % 0.00 in
12:01 41.4 °F 27.3 °F 29.93 in WNW 5.4 mph 11.5 mph 57 % 0.00 in
12:06 41.6 °F 27.1 °F 29.93 in WNW 7.3 mph 11.5 mph 56 % 0.00 in
12:11 41.8 °F 27.2 °F 29.92 in WSW 7.8 mph 13.8 mph 56 % 0.00 in
12:16 42.0 °F 27.9 °F 29.92 in WNW 4.2 mph 11.5 mph 57 % 0.00 in
12:21 42.3 °F 28.1 °F 29.93 in WSW 4.6 mph 11.0 mph 57 % 0.00 in
12:26 42.5 °F 27.0 °F 29.93 in WSW 8.0 mph 12.7 mph 54 % 0.00 in
12:31 42.4 °F 26.9 °F 29.93 in WNW 7.7 mph 12.0 mph 54 % 0.00 in
12:36 42.4 °F 26.9 °F 29.92 in NW 5.2 mph 9.2 mph 54 % 0.00 in
12:41 42.5 °F 27.0 °F 29.92 in NW 6.6 mph 12.7 mph 54 % 0.00 in
12:46 42.5 °F 26.6 °F 29.92 in WNW 6.7 mph 12.7 mph 53 % 0.00 in
12:52 42.5 °F 27.0 °F 29.92 in WSW 7.9 mph 13.8 mph 54 % 0.00 in
12:57 42.5 °F 27.0 °F 29.92 in NW 3.9 mph 6.9 mph 54 % 0.00 in
13:02 42.5 °F 26.6 °F 29.92 in WNW 7.7 mph 15.0 mph 53 % 0.00 in
13:07 42.6 °F 26.6 °F 29.91 in West 5.0 mph 9.2 mph 53 % 0.00 in
13:12 42.5 °F 26.6 °F 29.91 in NW 5.0 mph 9.2 mph 53 % 0.00 in
13:17 42.5 °F 27.0 °F 29.91 in WNW 3.6 mph 9.2 mph 54 % 0.00 in
13:22 42.6 °F 27.1 °F 29.91 in WSW 3.9 mph 9.2 mph 54 % 0.00 in
13:27 42.6 °F 26.6 °F 29.92 in WNW 4.6 mph 11.5 mph 53 % 0.00 in
13:32 42.5 °F 26.6 °F 29.92 in West 6.0 mph 16.1 mph 53 % 0.00 in
13:37 42.4 °F 26.5 °F 29.92 in WNW 4.7 mph 10.4 mph 53 % 0.00 in
13:43 42.4 °F 26.5 °F 29.92 in West 6.5 mph 11.5 mph 53 % 0.00 in
13:48 42.5 °F 26.1 °F 29.92 in WSW 3.1 mph 6.9 mph 52 % 0.00 in
13:53 42.5 °F 26.1 °F 29.92 in SW 5.4 mph 13.8 mph 52 % 0.00 in
13:58 42.6 °F 26.2 °F 29.92 in West 6.2 mph 9.2 mph 52 % 0.00 in
14:03 42.6 °F 26.2 °F 29.92 in WSW 4.1 mph 10.0 mph 52 % 0.00 in
14:08 42.6 °F 25.7 °F 29.92 in West 6.7 mph 12.7 mph 51 % 0.00 in
14:13 42.5 °F 26.1 °F 29.92 in WNW 6.4 mph 8.1 mph 52 % 0.00 in
14:18 42.3 °F 25.9 °F 29.91 in WNW 6.0 mph 10.4 mph 52 % 0.00 in
14:23 42.1 °F 25.3 °F 29.91 in WNW 6.2 mph 7.0 mph 51 % 0.00 in
14:28 42.0 °F 25.6 °F 29.91 in NW 6.1 mph 10.4 mph 52 % 0.00 in
14:34 41.8 °F 25.9 °F 29.91 in WNW 1.5 mph 4.6 mph 53 % 0.00 in
14:39 41.7 °F 25.8 °F 29.92 in NW 4.4 mph 8.1 mph 53 % 0.00 in
14:44 41.7 °F 26.3 °F 29.92 in NW 5.5 mph 10.4 mph 54 % 0.00 in
14:49 41.5 °F 26.1 °F 29.92 in NW 5.5 mph 8.1 mph 54 % 0.00 in
14:54 41.4 °F 26.0 °F 29.92 in NW 5.2 mph 8.1 mph 54 % 0.00 in
14:59 41.3 °F 25.4 °F 29.92 in WNW 4.6 mph 8.1 mph 53 % 0.00 in
15:04 41.3 °F 25.4 °F 29.92 in WNW 4.6 mph 6.9 mph 53 % 0.00 in
15:05 41.3 °F 25.4 °F 29.92 in WNW 5.0 mph 9.0 mph 53 % 0.00 in
15:10 41.2 °F 25.8 °F 29.92 in North 5.7 mph 9.2 mph 54 % 0.00 in
15:15 41.1 °F 25.3 °F 29.92 in NW 2.5 mph 5.8 mph 53 % 0.00 in
15:20 41.0 °F 25.2 °F 29.92 in WNW 5.1 mph 8.1 mph 53 % 0.00 in
15:25 40.9 °F 25.1 °F 29.92 in NW 6.1 mph 8.1 mph 53 % 0.00 in
15:30 40.9 °F 25.1 °F 29.92 in WNW 5.2 mph 9.2 mph 53 % 0.00 in
15:35 40.7 °F 24.4 °F 29.93 in WNW 2.8 mph 6.9 mph 52 % 0.00 in
15:40 40.7 °F 24.9 °F 29.93 in NW 2.3 mph 11.5 mph 53 % 0.00 in
15:45 40.6 °F 24.8 °F 29.93 in West 4.4 mph 9.0 mph 53 % 0.00 in
15:50 40.5 °F 23.8 °F 29.93 in NW 6.1 mph 10.4 mph 51 % 0.00 in
15:56 40.4 °F 23.7 °F 29.93 in WNW 2.9 mph 5.8 mph 51 % 0.00 in
16:01 40.4 °F 23.7 °F 29.93 in WSW 3.7 mph 6.9 mph 51 % 0.00 in
16:06 40.3 °F 23.6 °F 29.93 in NNW 5.5 mph 11.5 mph 51 % 0.00 in
16:11 40.2 °F 23.5 °F 29.93 in West 2.7 mph 4.0 mph 51 % 0.00 in
16:16 40.2 °F 23.0 °F 29.93 in WNW 5.0 mph 10.4 mph 50 % 0.00 in
16:21 40.0 °F 22.8 °F 29.92 in WNW 4.6 mph 7.0 mph 50 % 0.00 in
16:26 39.9 °F 23.2 °F 29.93 in WNW 2.9 mph 5.0 mph 51 % 0.00 in
16:31 39.8 °F 23.1 °F 29.92 in WNW 1.9 mph 3.5 mph 51 % 0.00 in
16:36 39.7 °F 23.0 °F 29.92 in WNW 2.3 mph 3.5 mph 51 % 0.00 in
16:41 39.5 °F 23.3 °F 29.92 in WSW 2.3 mph 4.6 mph 52 % 0.00 in
16:46 39.4 °F 23.7 °F 29.92 in WSW 0.2 mph 2.3 mph 53 % 0.00 in
16:51 39.2 °F 23.5 °F 29.92 in WSW 1.6 mph 3.5 mph 53 % 0.00 in
16:57 39.1 °F 22.9 °F 29.92 in WSW 0.9 mph 2.3 mph 52 % 0.00 in
17:02 38.9 °F 23.2 °F 29.92 in Calm   1.2 mph 53 % 0.00 in
17:07 38.7 °F 23.5 °F 29.92 in Calm   1.2 mph 54 % 0.00 in
17:12 38.6 °F 23.8 °F 29.92 in WSW 0.4 mph 1.2 mph 55 % 0.00 in
17:17 38.4 °F 24.1 °F 29.91 in Calm     56 % 0.00 in
17:22 38.1 °F 24.2 °F 29.91 in WSW 0.2 mph 2.3 mph 57 % 0.00 in
17:27 37.8 °F 23.9 °F 29.91 in Calm     57 % 0.00 in
17:32 37.6 °F 24.1 °F 29.90 in Calm     58 % 0.00 in
17:37 37.3 °F 23.9 °F 29.91 in Calm     58 % 0.00 in
17:42 37.0 °F 24.0 °F 29.91 in Calm     59 % 0.00 in
17:48 36.8 °F 23.8 °F 29.91 in WSW 1.1 mph 2.3 mph 59 % 0.00 in
17:53 36.6 °F 24.0 °F 29.91 in Calm   1.2 mph 60 % 0.00 in
17:58 36.4 °F 24.2 °F 29.92 in Calm     61 % 0.00 in
18:03 36.1 °F 23.9 °F 29.92 in Calm     61 % 0.00 in
18:08 36.0 °F 24.6 °F 29.92 in WSW 0.1 mph 1.2 mph 63 % 0.00 in
18:13 35.7 °F 24.7 °F 29.92 in Calm   1.2 mph 64 % 0.00 in
18:18 35.6 °F 24.6 °F 29.92 in Calm     64 % 0.00 in
18:23 35.5 °F 24.9 °F 29.92 in WSW 0.2 mph 2.3 mph 65 % 0.00 in
18:28 35.3 °F 24.7 °F 29.91 in Calm   1.2 mph 65 % 0.00 in
18:33 35.2 °F 24.6 °F 29.92 in WSW 0.1 mph 1.2 mph 65 % 0.00 in
18:38 35.0 °F 24.8 °F 29.91 in Calm   1.2 mph 66 % 0.00 in
18:44 34.9 °F 25.0 °F 29.92 in Calm   1.2 mph 67 % 0.00 in
18:49 34.8 °F 25.0 °F 29.92 in WSW 1.7 mph 2.3 mph 67 % 0.00 in
18:54 34.6 °F 24.8 °F 29.92 in WSW 1.4 mph 2.3 mph 67 % 0.00 in
18:59 34.4 °F 24.6 °F 29.92 in WSW 1.1 mph 2.3 mph 67 % 0.00 in
19:04 34.3 °F 24.1 °F 29.93 in WSW 2.2 mph 4.0 mph 66 % 0.00 in
19:09 34.2 °F 23.7 °F 29.92 in Calm   1.2 mph 65 % 0.00 in
19:14 34.1 °F 23.9 °F 29.92 in WSW 0.3 mph 2.0 mph 66 % 0.00 in
19:19 34.1 °F 24.3 °F 29.92 in WSW 0.3 mph 1.2 mph 67 % 0.00 in
19:24 34.0 °F 24.5 °F 29.92 in WSW 1.2 mph 2.3 mph 68 % 0.00 in
19:29 33.9 °F 24.1 °F 29.92 in SW 1.0 mph 4.0 mph 67 % 0.00 in
19:34 33.8 °F 23.6 °F 29.92 in SW 1.0 mph 4.0 mph 66 % 0.00 in
19:39 33.7 °F 23.2 °F 29.92 in SW 2.0 mph 5.0 mph 65 % 0.00 in
19:44 33.7 °F 22.8 °F 29.92 in SW 2.0 mph 5.0 mph 64 % 0.00 in
19:49 33.6 °F 21.6 °F 29.92 in WSW 3.6 mph 5.8 mph 61 % 0.00 in
19:54 33.6 °F 21.6 °F 29.92 in Calm   6.0 mph 61 % 0.00 in
19:59 33.7 °F 20.9 °F 29.92 in SW 1.9 mph 4.0 mph 59 % 0.00 in
20:05 33.7 °F 20.5 °F 29.92 in SW 2.4 mph 5.8 mph 58 % 0.00 in
20:10 33.8 °F 20.2 °F 29.92 in SSW 3.2 mph 4.6 mph 57 % 0.00 in
20:15 33.8 °F 19.7 °F 29.92 in SSW 1.1 mph 3.5 mph 56 % 0.00 in
20:20 33.8 °F 19.3 °F 29.92 in SW 2.4 mph 4.0 mph 55 % 0.00 in
20:25 33.8 °F 19.7 °F 29.91 in SSW 0.9 mph 2.3 mph 56 % 0.00 in
20:30 33.8 °F 19.3 °F 29.91 in SW 1.9 mph 3.5 mph 55 % 0.00 in
20:35 33.8 °F 19.7 °F 29.91 in SW 0.1 mph 1.2 mph 56 % 0.00 in
20:40 33.7 °F 19.2 °F 29.90 in Calm   2.3 mph 55 % 0.00 in
20:45 33.6 °F 19.1 °F 29.90 in Calm   1.2 mph 55 % 0.00 in
20:50 33.4 °F 19.4 °F 29.90 in SW 0.3 mph 2.3 mph 56 % 0.00 in
20:56 33.3 °F 19.3 °F 29.90 in SW 1.2 mph 3.5 mph 56 % 0.00 in
21:01 33.0 °F 18.6 °F 29.89 in SSW 3.2 mph 5.8 mph 55 % 0.00 in
21:06 32.8 °F 18.4 °F 29.89 in South 3.1 mph 4.6 mph 55 % 0.00 in
21:11 32.7 °F 17.9 °F 29.89 in SSW 4.3 mph 9.2 mph 54 % 0.00 in
21:16 32.7 °F 17.9 °F 29.90 in WSW 2.3 mph 3.5 mph 54 % 0.00 in
21:21 32.7 °F 17.9 °F 29.90 in SW 4.3 mph 6.9 mph 54 % 0.00 in
21:26 32.7 °F 17.9 °F 29.89 in SSW 2.7 mph 8.1 mph 54 % 0.00 in
21:31 32.7 °F 17.9 °F 29.89 in SW 2.0 mph 3.5 mph 54 % 0.00 in
21:36 32.8 °F 18.0 °F 29.89 in WSW 3.5 mph 6.9 mph 54 % 0.00 in
21:41 32.8 °F 18.0 °F 29.89 in SW 2.1 mph 4.6 mph 54 % 0.00 in
21:46 32.8 °F 18.0 °F 29.89 in SW 3.2 mph 4.6 mph 54 % 0.00 in
21:52 32.8 °F 18.0 °F 29.89 in South 1.9 mph 3.5 mph 54 % 0.00 in
21:57 32.8 °F 17.5 °F 29.89 in WSW 5.0 mph 13.8 mph 53 % 0.00 in
22:02 33.0 °F 17.3 °F 29.89 in SSW 2.1 mph 4.6 mph 52 % 0.00 in
22:07 33.1 °F 16.9 °F 29.88 in SW 7.4 mph 13.8 mph 51 % 0.00 in
22:12 33.3 °F 17.1 °F 29.89 in SSW 3.4 mph 6.9 mph 51 % 0.00 in
22:17 33.3 °F 17.1 °F 29.88 in SSW 3.2 mph 5.8 mph 51 % 0.00 in
22:22 33.4 °F 17.2 °F 29.88 in SW 3.5 mph 6.9 mph 51 % 0.00 in
22:27 33.4 °F 17.6 °F 29.88 in SSW 0.9 mph 3.5 mph 52 % 0.00 in
22:32 33.3 °F 17.5 °F 29.87 in SW 0.7 mph 3.5 mph 52 % 0.00 in
22:37 33.2 °F 17.9 °F 29.87 in SW 1.9 mph 3.5 mph 53 % 0.00 in
22:43 33.1 °F 17.4 °F 29.87 in SSW 0.1 mph 2.3 mph 52 % 0.00 in
22:48 33.0 °F 17.7 °F 29.86 in SW 2.8 mph 3.5 mph 53 % 0.00 in
22:53 32.9 °F 17.6 °F 29.86 in SW 0.1 mph 1.2 mph 53 % 0.00 in
22:58 32.7 °F 17.9 °F 29.86 in Calm     54 % 0.00 in
23:03 32.6 °F 17.8 °F 29.85 in Calm     54 % 0.00 in
23:08 32.3 °F 17.5 °F 29.85 in SW 0.9 mph 2.3 mph 54 % 0.00 in
23:13 32.1 °F 17.7 °F 29.85 in SW 1.9 mph 3.0 mph 55 % 0.00 in
23:18 31.8 °F 17.5 °F 29.85 in SW 1.5 mph 3.5 mph 55 % 0.00 in
23:23 31.6 °F 17.3 °F 29.85 in SW 0.7 mph 2.3 mph 55 % 0.00 in
23:28 31.4 °F 17.1 °F 29.85 in SW 1.5 mph 3.5 mph 55 % 0.00 in
23:34 31.2 °F 16.9 °F 29.85 in SW 1.9 mph 3.5 mph 55 % 0.00 in
23:39 31.1 °F 16.8 °F 29.85 in SW 1.6 mph 4.0 mph 55 % 0.00 in
23:44 30.9 °F 16.6 °F 29.84 in Calm     55 % 0.00 in
23:49 30.8 °F 16.5 °F 29.84 in SW 0.1 mph 1.2 mph 55 % 0.00 in
23:54 30.7 °F 16.8 °F 29.84 in Calm     56 % 0.00 in
23:59 30.6 °F 16.7 °F 29.84 in SW 0.9 mph 3.0 mph 56 % 0.00 in
Crab Meadow Weather
Compliments of Weather Underground - 3 mb

Script developed by  Jim McMurry - jmcmurry@mwt.net Adapted for the template by  Wim van der Kuil - Leuven-Template.eu

Recycling: Americans use 2,500,000 plastic bottles every hour! Most of them are thrown away!